Total_Precipitation_Accumulation
2.04 2.42 2.79 3.25 3.70 4.24 5.05 5.74 6.32 6.43 6.30 5.95 5.58 5.33 4.88 4.59 4.30 4.03 3.88 3.63 3.36 3.25 3.64 3.37 3.75 3.60 3.57 3.39 3.36 3.54 3.58 3.24 3.40 3.74 3.28 2.72 2.38 2.28 2.10 2.09 2.21 2.12 2.25
1.96 2.34 2.88 3.19 3.56 4.13 4.74 5.13 5.21 5.01 4.94 5.02 4.93 4.65 4.65 4.49 4.43 4.26 4.11 3.57 3.39 3.30 3.10 3.35 3.19 3.18 3.35 3.14 3.08 3.30 3.30 2.95 3.22 3.51 3.61 3.06 2.79 2.32 1.74 1.93 2.10 2.19 2.44
1.60 1.97 2.54 2.87 3.07 3.61 3.98 3.98 3.95 3.90 4.04 4.14 4.08 4.12 4.37 4.45 4.53 4.49 4.25 3.80 3.60 3.48 3.31 3.20 3.03 3.00 2.85 3.04 3.08 3.11 3.23 3.19 3.06 3.09 3.45 3.19 2.84 2.38 1.88 1.81 2.05 2.39 2.67
1.33 1.65 2.00 2.26 2.54 2.85 3.03 3.01 3.13 3.25 3.34 3.45 3.49 3.37 3.39 3.66 3.94 4.19 4.28 4.17 3.89 3.66 3.36 3.14 2.93 2.78 2.63 2.96 2.66 2.77 3.09 3.30 2.96 2.86 2.80 2.78 2.92 2.81 2.44 1.99 1.85 2.11 2.32
1.38 1.57 1.69 1.89 2.01 2.11 2.27 2.35 2.61 3.02 3.21 3.33 3.50 3.42 3.08 3.09 3.19 3.37 3.57 3.59 3.59 3.42 3.07 2.95 2.88 2.70 2.53 2.61 2.63 2.96 2.96 2.92 2.82 2.87 2.81 2.90 3.09 2.89 2.76 2.44 2.29 2.35 2.21
1.09 1.31 1.59 1.71 1.70 1.69 1.86 2.09 2.39 2.92 3.23 3.35 3.30 3.31 3.23 3.22 3.15 3.15 3.26 3.17 3.17 3.09 2.82 2.67 2.77 2.63 2.55 2.62 2.63 2.75 2.83 2.96 2.99 2.95 2.91 2.96 2.97 3.01 3.20 2.86 2.61 2.55 2.22
0.88 0.88 1.07 1.34 1.34 1.30 1.50 1.76 1.98 2.45 2.80 2.98 2.88 2.84 3.00 3.12 2.96 2.79 2.76 2.75 2.60 2.54 2.51 2.56 2.67 2.54 2.57 2.66 2.80 2.84 2.82 2.94 2.96 2.87 2.94 3.00 2.94 3.05 3.20 3.14 2.77 2.51 2.20
0.67 0.64 0.70 0.89 1.14 1.17 1.27 1.41 1.64 1.93 2.27 2.49 2.56 2.64 2.83 2.95 2.88 3.07 2.79 2.64 2.31 2.16 2.23 2.44 2.49 2.44 2.40 2.44 2.90 2.90 2.91 3.01 2.93 2.76 3.10 3.12 2.88 3.06 3.21 3.34 3.40 3.02 2.74
0.59 0.62 0.68 0.85 0.93 0.95 1.04 1.21 1.42 1.62 1.85 2.11 2.34 2.43 2.42 2.43 2.59 2.77 2.71 2.53 2.44 2.18 2.22 2.29 2.50 2.60 2.69 2.75 2.94 2.88 2.90 3.12 3.06 3.00 3.20 3.14 2.94 2.96 3.04 3.28 3.58 3.67 3.42
0.63 0.62 0.63 0.68 0.75 0.81 0.93 1.14 1.34 1.38 1.61 2.00 2.29 2.28 2.37 2.29 2.44 2.42 2.40 2.43 2.34 2.27 2.32 2.34 2.42 2.58 2.69 2.74 2.90 2.91 2.97 3.15 3.16 3.23 3.31 3.16 2.90 3.06 3.05 3.15 3.49 3.82 3.92
0.67 0.64 0.63 0.63 0.75 0.70 0.79 0.97 1.11 1.27 1.58 1.94 2.27 2.41 2.35 2.32 2.39 2.22 2.17 2.28 2.29 2.27 2.36 2.37 2.37 2.35 2.47 2.67 2.91 2.84 3.01 3.13 3.17 3.13 3.05 2.96 3.01 3.20 3.11 3.22 3.37 3.64 3.93
0.54 0.50 0.49 0.55 0.56 0.58 0.70 1.00 1.31 1.67 1.89 2.21 2.55 2.72 2.52 2.30 2.16 1.97 1.95 2.10 2.27 2.32 2.34 2.35 2.35 2.27 2.37 2.65 2.80 2.89 3.15 3.29 3.17 3.08 3.06 2.91 3.04 3.14 3.11 3.18 3.15 3.27 3.63
0.56 0.54 0.50 0.58 0.59 0.57 0.59 0.73 0.91 1.31 1.66 2.02 2.38 2.45 2.23 2.02 1.98 1.96 1.99 2.12 2.31 2.34 2.31 2.34 2.37 2.45 2.61 2.80 2.91 3.01 3.17 3.13 3.01 3.06 2.97 2.82 2.93 2.83 2.89 2.93 2.94 2.94 3.08
0.68 0.62 0.60 0.59 0.59 0.60 0.58 0.68 0.79 0.88 1.15 1.63 1.97 1.96 1.83 1.78 1.83 1.87 1.93 1.95 2.06 2.13 2.19 2.34 2.51 2.63 2.79 2.90 2.94 2.99 2.98 2.94 2.79 2.70 2.63 2.64 2.78 2.86 2.85 2.74 2.72 2.81 2.96
0.69 0.64 0.64 0.72 0.74 0.79 0.80 0.80 0.82 0.85 1.05 1.57 1.84 1.80 1.73 1.77 1.75 1.75 1.87 1.95 2.00 2.04 2.28 2.43 2.51 2.55 2.57 2.62 2.83 2.81 2.70 2.68 2.54 2.42 2.26 2.29 2.63 2.78 2.76 2.53 2.65 2.73 2.79
0.67 0.65 0.58 0.67 0.79 0.87 0.89 0.90 0.96 1.01 1.14 1.52 1.82 1.79 1.69 1.66 1.60 1.68 1.82 1.95 2.03 2.21 2.40 2.40 2.39 2.34 1.97 2.09 2.26 2.28 2.27 2.31 2.28 2.16 2.12 2.11 2.18 2.22 2.27 2.28 2.31 2.38 2.45
0.65 0.66 0.70 0.78 0.98 0.92 0.94 1.02 0.96 1.02 1.21 1.58 1.83 1.87 1.77 1.72 1.70 1.64 1.82 2.02 2.25 2.44 2.54 2.48 2.42 2.25 2.12 2.01 1.90 1.89 1.94 2.08 2.10 2.13 2.20 1.90 1.71 1.90 1.92 2.09 2.09 2.01 2.10
0.73 0.81 0.80 0.86 0.94 0.93 0.99 1.06 1.08 1.13 1.30 1.60 1.84 1.92 1.89 1.90 1.98 1.99 2.07 2.26 2.51 2.69 2.71 2.66 2.55 2.41 2.26 2.17 1.98 1.97 1.89 1.97 1.99 2.01 2.06 2.01 1.88 1.86 2.01 2.11 2.05 1.88 1.83
0.86 0.91 1.00 1.05 1.13 1.12 1.08 1.16 1.31 1.37 1.44 1.53 1.80 2.00 2.08 2.14 2.12 2.17 2.43 2.64 2.81 2.84 2.80 2.87 2.77 2.63 2.57 2.38 2.03 1.86 1.78 1.93 1.96 1.96 1.91 1.87 1.80 1.92 1.84 1.78 1.78 1.80 1.77
1.01 1.01 1.08 1.14 1.17 1.22 1.30 1.36 1.49 1.65 1.78 1.88 2.04 2.32 2.53 2.67 2.70 2.77 2.84 2.91 3.01 2.97 2.98 2.89 2.83 2.72 2.66 2.58 2.05 1.78 1.69 1.87 1.90 1.95 1.89 1.79 1.63 1.66 1.59 1.52 1.64 1.65 1.66
0.95 1.04 1.07 1.18 1.28 1.30 1.45 1.73 1.87 1.96 2.14 2.31 2.39 2.65 3.00 3.19 3.14 3.17 3.07 2.99 2.98 3.00 3.00 2.88 2.78 2.70 2.60 2.50 2.06 1.88 1.83 1.95 2.04 1.97 1.87 1.80 1.69 1.50 1.47 1.42 1.45 1.53 1.59
0.89 1.01 1.10 1.19 1.39 1.65 1.85 2.14 2.32 2.38 2.46 2.62 2.92 3.16 3.33 3.16 3.06 3.24 3.14 3.14 3.20 3.17 3.07 2.97 2.86 2.90 2.78 2.52 2.18 1.97 1.95 2.02 2.08 2.10 2.05 1.97 1.78 1.54 1.48 1.38 1.34 1.34 1.27
0.90 1.00 1.10 1.29 1.49 1.80 2.20 2.46 2.54 2.74 2.75 2.82 3.03 3.10 3.16 3.26 3.39 3.46 3.34 3.27 3.26 3.19 3.01 2.91 2.72 2.66 2.74 2.73 2.31 2.02 2.03 2.06 1.98 2.10 2.19 1.96 1.72 1.55 1.38 1.38 1.40 1.28 1.16
1.00 1.05 1.17 1.38 1.67 1.98 2.33 2.50 2.56 2.60 2.63 2.67 2.72 2.84 3.02 3.15 3.26 3.48 3.47 3.34 3.16 3.06 2.97 2.93 2.80 2.72 2.74 2.68 2.31 1.99 1.96 2.01 1.92 1.95 2.05 1.91 1.75 1.60 1.45 1.41 1.37 1.27 1.29
1.09 1.19 1.30 1.42 1.57 1.82 2.11 2.23 2.40 2.53 2.70 2.74 2.67 2.60 2.64 2.77 2.92 3.05 3.13 3.06 3.02 2.87 2.75 2.59 2.54 2.51 2.51 2.52 2.27 2.01 1.96 2.08 2.15 2.12 2.08 2.02 1.88 1.73 1.59 1.54 1.56 1.60 1.60
1.06 1.19 1.33 1.50 1.66 1.82 2.01 2.12 2.31 2.48 2.66 2.67 2.56 2.52 2.49 2.56 2.62 2.63 2.61 2.48 2.37 2.23 2.06 2.00 1.93 1.89 1.95 2.12 1.97 1.84 1.90 2.10 2.24 2.11 2.01 2.08 2.02 1.87 1.76 1.70 1.69 1.70 1.66